Tracking 22454 objects as of 5-Mar-2021
HD Live streaming from Space Station
objects crossing your sky now

FREGAT DEB

Track FREGAT DEB now!
10-day predictions


NORAD ID: 45929
Int'l Code: 2011-037ET
Perigee: 390.8 km
Apogee: 3,497.0 km
Inclination: 51.4 °
Period: 125.8 minutes
Semi major axis: 8314 km
RCS: Unknown
Launch date: July 18, 2011
Source: Commonwealth of Independent States (former USSR) (CIS)
Launch site: TYURATAM MISSILE AND SPACE COMPLEX (TTMTR)

Note: This is SATELLITE DEBRIS
aabbcc
Your satellite tracking list
Your tracking list is empty




NASA's NSSDC Master Catalog

Two Line Element Set (TLE):
1 45929U 11037ET  21063.31785186  .00021631  00000-0  28155-2 0  9998
2 45929  51.4157  49.2479 1867841 213.3555 133.4645 11.45037179 26853
Source of the keplerian elements: AFSPC